DW6794 Weather Reports


Display with metric or nautical units.
time (UTC)temp
F
wind
direction
speed
MPH
gust
MPH
rain 1hr
in
rain 24hr
in
rain mn
in
humidity
%
barometer
mb
20150829232359 79 77 0.0 0.0 0.00 0.00 0.00 61 1015.5
20150829231359 79 77 0.0 0.0 0.00 0.00 0.00 61 1015.6
20150829230359 79 77 0.0 0.0 0.00 0.00 0.00 60 1015.6
20150829225400 80 77 0.0 0.0 0.00 0.00 0.00 60 1015.6
20150829224359 80 77 0.0 0.0 0.00 0.00 0.00 58 1015.5
20150829223359 80 77 0.0 0.0 0.00 0.00 0.00 58 1015.5
20150829222359 80 77 0.0 0.0 0.00 0.00 0.00 57 1015.5
20150829221400 80 77 0.0 0.0 0.00 0.00 0.00 56 1015.5
20150829220359 81 77 0.0 0.0 0.00 0.00 0.00 54 1015.7
20150829215359 81 77 0.0 0.0 0.00 0.00 0.00 54 1015.8
20150829214359 81 81 0.0 0.0 0.00 0.00 0.00 54 1015.6
20150829213400 82 81 0.0 0.0 0.00 0.00 0.00 53 1015.7
20150829212400 82 81 0.0 0.0 0.00 0.00 0.00 51 1015.9
20150829211400 82 81 0.0 0.0 0.00 0.00 0.00 51 1016.0
20150829210359 82 80 0.0 0.0 0.00 0.00 0.00 50 1016.1
20150829205400 82 80 0.0 0.0 0.00 0.00 0.00 50 1016.1
20150829204400 82 80 0.0 0.0 0.00 0.00 0.00 50 1016.1
20150829203400 83 80 0.0 0.0 0.00 0.00 0.00 53 1016.1
20150829202359 83 80 0.0 0.0 0.00 0.00 0.00 49 1016.2
20150829201400 83 80 0.0 0.0 0.00 0.00 0.00 49 1016.2
20150829200400 83 17 0.0 0.0 0.00 0.00 0.00 49 1016.5
20150829195400 83 15 0.0 0.0 0.00 0.00 0.00 50 1016.6
20150829194359 84 298 0.0 0.0 0.00 0.00 0.00 51 1016.6
20150829193400 84 294 0.0 0.0 0.00 0.00 0.00 53 1016.9
20150829192400 84 294 0.0 0.0 0.00 0.00 0.00 53 1017.0
20150829191400 83 294 0.0 0.0 0.00 0.00 0.00 53 1017.1
20150829190400 83 271 0.0 0.0 0.00 0.00 0.00 53 1017.2
20150829185400 83 215 0.0 0.0 0.00 0.00 0.00 54 1017.2
20150829184400 83 183 0.0 0.0 0.00 0.00 0.00 53 1017.3
20150829183401 82 236 0.0 0.0 0.00 0.00 0.00 55 1017.6
20150829182400 82 227 0.0 0.0 0.00 0.00 0.00 55 1017.7
20150829181400 82 226 0.0 0.0 0.00 0.00 0.00 57 1017.8
20150829180401 82 224 0.0 0.0 0.00 0.00 0.00 59 1018.1
20150829175400 81 205 0.0 0.0 0.00 0.00 0.00 61 1018.2
20150829174400 81 223 0.0 0.0 0.00 0.00 0.00 62 1018.3
20150829173400 80 127 0.0 0.0 0.00 0.00 0.00 64 1018.5
20150829172400 80 127 0.0 0.0 0.00 0.00 0.00 65 1018.6
20150829171400 79 127 0.0 0.0 0.00 0.00 0.00 64 1018.7
20150829170401 79 99 0.0 0.0 0.00 0.00 0.00 66 1018.8
20150829165401 78 128 0.0 0.0 0.00 0.00 0.00 67 1018.8
20150829164400 78 128 0.0 0.0 0.00 0.00 0.00 67 1018.9
20150829163400 78 128 0.0 0.0 0.00 0.00 0.00 68 1019.0
20150829162401 78 128 0.0 0.0 0.00 0.00 0.00 71 1019.1
20150829161401 77 129 0.0 0.0 0.00 0.00 0.00 73 1019.2
20150829160400 76 169 0.0 0.0 0.00 0.00 0.00 73 1019.3
20150829155401 76 169 0.0 0.0 0.00 0.00 0.00 74 1019.4
20150829154400 75 169 0.0 0.0 0.00 0.00 0.00 75 1019.3
20150829153400 75 169 0.0 0.0 0.00 0.00 0.00 76 1019.4
20150829152401 74 169 0.0 0.0 0.00 0.00 0.00 77 1019.4
20150829151400 73 169 0.0 0.0 0.00 0.00 0.00 78 1019.5
20150829150401 72 169 0.0 0.0 0.00 0.00 0.00 78 1019.4
20150829145400 71 169 0.0 0.0 0.00 0.00 0.00 79 1019.4
20150829144401 71 169 0.0 0.0 0.00 0.00 0.00 80 1019.5
20150829143400 71 169 0.0 0.0 0.00 0.00 0.00 81 1019.5
20150829142401 70 169 0.0 0.0 0.00 0.00 0.00 81 1019.4
20150829141401 70 169 0.0 0.0 0.00 0.00 0.00 81 1019.4
20150829140400 69 169 0.0 0.0 0.00 0.00 0.00 82 1019.4
20150829135401 68 169 0.0 0.0 0.00 0.00 0.00 82 1019.3
20150829134400 68 169 0.0 0.0 0.00 0.00 0.00 83 1019.3
20150829133400 67 169 0.0 0.0 0.00 0.00 0.00 83 1019.3
20150829132402 67 169 0.0 0.0 0.00 0.00 0.00 84 1019.2
20150829131401 66 169 0.0 0.0 0.00 0.00 0.00 84 1019.0
20150829130401 65 169 0.0 0.0 0.00 0.00 0.00 85 1019.1
20150829125401 64 169 0.0 0.0 0.00 0.00 0.00 85 1019.2
20150829124402 63 169 0.0 0.0 0.00 0.00 0.00 86 1019.3
20150829123402 62 169 0.0 0.0 0.00 0.00 0.00 85 1019.3
20150829122401 61 169 0.0 0.0 0.00 0.00 0.00 85 1019.3
20150829121401 60 169 0.0 0.0 0.00 0.00 0.00 85 1019.1
20150829120401 59 169 0.0 0.0 0.00 0.00 0.00 85 1019.2
20150829115401 59 169 0.0 0.0 0.00 0.00 0.00 85 1019.2
20150829114401 58 169 0.0 0.0 0.00 0.00 0.00 85 1019.1
20150829113401 58 169 0.0 0.0 0.00 0.00 0.00 84 1019.0
20150829112402 57 169 0.0 0.0 0.00 0.00 0.00 84 1019.0
20150829111402 57 169 0.0 0.0 0.00 0.00 0.00 84 1018.8
20150829110401 57 169 0.0 0.0 0.00 0.00 0.00 84 1018.5
20150829105401 57 169 0.0 0.0 0.00 0.00 0.00 84 1018.5
20150829104402 57 169 0.0 0.0 0.00 0.00 0.00 84 1018.5
20150829103402 57 169 0.0 0.0 0.00 0.00 0.00 84 1018.4
20150829102402 57 169 0.0 0.0 0.00 0.00 0.00 84 1018.4
20150829101402 57 169 0.0 0.0 0.00 0.00 0.00 84 1018.3
20150829100401 57 169 0.0 0.0 0.00 0.00 0.00 83 1018.0
20150829095402 58 169 0.0 0.0 0.00 0.00 0.00 83 1018.0
20150829094402 58 169 0.0 0.0 0.00 0.00 0.00 83 1017.9
20150829093402 58 169 0.0 0.0 0.00 0.00 0.00 83 1017.9
20150829092401 59 169 0.0 0.0 0.00 0.00 0.00 83 1017.6
20150829091401 59 169 0.0 0.0 0.00 0.00 0.00 83 1017.4
20150829090402 60 169 0.0 0.0 0.00 0.00 0.00 83 1017.3
20150829085402 60 169 0.0 0.0 0.00 0.00 0.00 83 1017.4
20150829084402 60 169 0.0 0.0 0.00 0.00 0.00 83 1017.4
20150829083402 60 169 0.0 0.0 0.00 0.00 0.00 82 1017.4
20150829082402 60 169 0.0 0.0 0.00 0.00 0.00 82 1017.3
20150829081402 60 169 0.0 0.0 0.00 0.00 0.00 82 1017.3
20150829080401 60 169 0.0 0.0 0.00 0.00 0.00 82 1017.3
20150829075402 60 169 0.0 0.0 0.00 0.00 0.00 82 1017.3
20150829074402 61 169 0.0 0.0 0.00 0.00 0.00 82 1017.3
20150829073402 61 169 0.0 0.0 0.00 0.00 0.00 81 1017.2
20150829072402 61 169 0.0 0.0 0.00 0.00 0.00 81 1017.3
20150829071403 62 169 0.0 0.0 0.00 0.00 0.00 81 1017.3
20150829070402 62 169 0.0 0.0 0.00 0.00 0.00 81 1017.3
20150829065402 62 169 0.0 0.0 0.00 0.00 0.00 81 1017.3
20150829064402 62 169 0.0 0.0 0.00 0.00 0.00 80 1017.3
20150829063402 62 169 0.0 0.0 0.00 0.00 0.00 80 1017.3
20150829062402 63 169 0.0 0.0 0.00 0.00 0.00 80 1017.3
20150829061402 63 169 0.0 0.0 0.00 0.00 0.00 79 1017.3
20150829060402 63 169 0.0 0.0 0.00 0.00 0.00 79 1017.3
20150829055403 63 169 0.0 0.0 0.00 0.00 0.00 79 1017.3
20150829054403 64 169 0.0 0.0 0.00 0.00 0.00 79 1017.3
20150829053403 64 169 0.0 0.0 0.00 0.00 0.00 78 1017.4
20150829052403 64 169 0.0 0.0 0.00 0.00 0.00 79 1017.5
20150829051402 64 169 0.0 0.0 0.00 0.00 0.00 78 1017.6
20150829050403 64 169 0.0 0.0 0.00 0.00 0.00 78 1017.9
20150829045402 64 169 0.0 0.0 0.00 0.00 0.00 77 1017.9
20150829044402 65 169 0.0 0.0 0.00 0.00 0.00 77 1017.9
20150829043403 65 169 0.0 0.0 0.00 0.00 0.00 77 1017.9
20150829042403 65 169 0.0 0.0 0.00 0.00 0.00 77 1017.9
20150829041403 66 169 0.0 0.0 0.00 0.00 0.00 76 1017.9
20150829040402 66 169 0.0 0.0 0.00 0.00 0.00 76 1017.8
20150829035402 66 90 0.0 0.0 0.00 0.00 0.00 76 1017.8
20150829034403 66 90 0.0 0.0 0.00 0.00 0.00 76 1017.8
20150829033402 66 86 0.0 0.0 0.00 0.00 0.00 76 1017.8
20150829032402 66 86 0.0 0.0 0.00 0.00 0.00 74 1017.6
20150829031403 66 86 0.0 0.0 0.00 0.00 0.00 74 1017.6
20150829030403 66 86 0.0 0.0 0.00 0.00 0.00 73 1017.6
20150829025403 67 86 0.0 0.0 0.00 0.00 0.00 73 1017.7
20150829024403 67 86 0.0 0.0 0.00 0.00 0.00 73 1017.5
20150829023403 67 86 0.0 0.0 0.00 0.00 0.00 71 1017.4
20150829022403 68 86 0.0 0.0 0.00 0.00 0.00 71 1017.3
20150829021403 68 86 0.0 0.0 0.00 0.00 0.00 70 1017.3
20150829020403 69 86 0.0 0.0 0.00 0.00 0.00 69 1017.4
20150829015403 70 86 0.0 0.0 0.00 0.00 0.00 68 1017.2
20150829014403 70 80 0.0 0.0 0.00 0.00 0.00 67 1017.2
20150829013403 71 80 0.0 0.0 0.00 0.00 0.00 67 1017.0
20150829012403 72 80 0.0 0.0 0.00 0.00 0.00 65 1016.9
20150829011403 72 80 0.0 0.0 0.00 0.00 0.00 64 1016.6
20150829010403 73 80 0.0 0.0 0.00 0.00 0.00 63 1016.4
20150829005404 73 80 0.0 0.0 0.00 0.00 0.00 61 1016.2
20150829004403 74 80 0.0 0.0 0.00 0.00 0.00 60 1016.1
20150829003404 75 80 0.0 0.0 0.00 0.00 0.00 59 1015.7
20150829002403 75 80 0.0 0.0 0.00 0.00 0.00 58 1015.6
20150829001403 76 80 0.0 0.0 0.00 0.00 0.00 56 1015.6
20150829000404 78 80 0.0 0.0 0.00 0.00 0.00 54 1015.4
20150828235403 80 80 0.0 0.0 0.00 0.00 0.00 52 1015.1
20150828234404 81 80 0.0 0.0 0.00 0.00 0.00 50 1015.0
20150828233404 82 80 0.0 0.0 0.00 0.00 0.00 48 1015.0